Weather WX

World > North America > United States > Ohio

Ruggles Beach, Ohio Regional Weather

Lat: 41.38N, Lon: 82.48W
Wx Zone: OHZ009
Feedback

Ruggles Beach, OH Regional Weather

Expires:201906260300;;082020
ASUS41 KCLE 260202
RWRCLE
OHIO REGIONAL WEATHER ROUNDUP
NATIONAL WEATHER SERVICE CLEVELAND, OH
1000 PM EDT TUE JUN 25 2019

NOTE: "FAIR" INDICATES FEW OR NO CLOUDS BELOW 12,000 FEET WITH NO
SIGNIFICANT WEATHER AND/OR OBSTRUCTIONS TO VISIBILITY.


OHZ009>014-019>023-028>033-038-089-260300-
   NORTHEAST OHIO
  
CITY           SKY/WX    TMP DP  RH WIND       PRES   REMARKS
CLE-HOPKINS    FAIR      77  59  53 S8        29.97R                  
CLE-LAKEFRONT  FAIR      80  56  43 S6        29.93R                  
CUY CO. ARPT   CLEAR     72  59  64 S5        29.95R                  
LORAIN-ELYRIA  FAIR      72  57  59 SW6       29.96R                  
ASHTABULA      FAIR      66  59  78 CALM      29.96S                  
AKRON-CANTON   FAIR      74  57  55 SW6       29.99R                  
WOOSTER        FAIR      72  62  71 SW5       29.99R                  
MANSFIELD      FAIR      71  60  68 SW6       30.00R                  
YOUNGSTOWN     FAIR      71  54  54 S7        29.98R                  
$$


SKY/WX - Weather  TMP - Temperature  DP - Dew Point  RH - Relative Humidity
WIND - Wind Direction/Speed PRES - Barometric Pressure VSB - Visibility
WCI - Wind Chill Index E13G22 Wind - East Wind 13 mph/Gusts of 22 mph